SCP
0 0 1 1 0 0 1 1 1 1 2 3 3 3 3 4 5 5 4 3 2 1 1 0 0 0 0 0 0 0 0 0 0 0 0 0 0 0 0 0 0 0 0 0
0 0 1 1 1 1 1 1 1 1 2 3 3 3 3 4 5 4 3 2 1 1 1 0 0 0 0 0 0 0 0 0 0 0 0 0 0 0 0 0 0 0 0 0
0 0 0 1 1 1 2 2 1 1 2 2 2 2 3 4 4 3 2 2 1 1 1 0 0 0 0 0 0 0 0 0 0 0 0 0 0 0 0 0 0 0 0 0
0 0 0 1 1 1 1 2 1 1 2 2 2 2 3 4 3 2 2 2 1 1 1 0 0 0 0 0 0 0 0 0 0 0 0 0 0 0 0 0 0 0 0 0
0 0 0 1 1 1 1 1 1 2 2 2 2 3 3 3 2 2 2 2 2 1 1 0 0 0 0 0 0 0 0 0 0 0 0 0 0 0 0 0 0 0 0 0
0 0 0 1 1 2 1 1 1 2 2 2 2 2 2 2 2 2 2 2 2 1 1 0 0 0 0 0 0 0 0 0 0 0 0 0 0 0 0 0 0 0 0 0
0 0 0 1 1 2 2 2 2 2 2 2 2 2 2 2 2 2 2 2 2 1 1 0 0 0 0 0 0 0 0 0 0 0 0 0 0 0 0 0 0 0 0 0
0 0 1 1 1 2 2 2 2 2 2 2 2 2 2 1 1 1 2 2 2 1 1 0 0 0 0 0 0 0 0 0 0 0 0 0 0 0 0 0 0 0 0 0
1 1 1 1 1 1 2 2 2 2 2 2 3 2 2 1 1 1 1 1 1 1 1 0 0 0 0 0 0 0 0 0 0 0 0 0 0 0 0 0 0 0 0 0
1 1 1 1 1 1 1 1 1 1 1 2 2 2 1 1 1 1 1 1 1 1 0 0 0 0 0 0 0 0 0 0 0 0 0 0 0 0 0 0 0 0 0 0
0 0 0 0 0 0 1 1 1 1 1 1 1 1 1 1 1 1 1 1 1 1 0 0 0 0 0 0 0 0 0 0 0 0 0 0 0 0 0 0 0 0 0 0
0 0 0 0 0 0 1 1 1 1 1 0 1 1 1 1 1 1 1 1 1 0 0 0 0 0 0 0 0 0 0 0 0 0 0 0 0 0 0 0 0 0 0 0
0 0 0 0 0 0 1 1 1 0 0 0 0 0 1 1 1 1 1 1 0 0 0 0 0 0 0 0 0 0 0 0 0 0 0 0 0 0 0 0 0 0 0 0
0 0 0 0 0 0 0 0 0 0 0 0 0 0 0 0 0 0 0 0 0 0 0 0 0 0 0 0 0 0 0 0 0 0 0 0 0 0 0 0 0 0 0 0
0 0 0 0 0 0 0 0 0 0 0 0 0 0 0 0 0 0 0 0 0 0 0 0 0 0 0 0 0 0 0 0 0 0 0 0 0 0 0 0 0 0 0 0
1 0 0 0 0 0 0 0 0 0 0 0 0 0 0 0 0 0 0 0 0 0 0 0 0 0 0 0 0 0 0 0 0 0 0 0 0 0 0 0 0 0 0 0
1 1 0 0 0 0 0 0 0 0 0 0 0 0 0 0 0 0 0 0 0 0 0 0 0 0 0 0 0 0 0 0 0 0 0 0 0 0 0 0 0 0 0 0
1 1 1 0 0 0 0 0 0 0 0 0 0 0 0 0 0 0 0 0 0 0 0 0 0 0 0 0 0 0 0 0 0 0 0 0 0 0 0 0 0 0 0 0
0 0 0 0 0 0 0 0 0 0 0 0 0 0 0 0 0 0 0 0 0 0 0 0 0 0 0 0 0 0 0 0 0 0 0 0 0 0 0 0 0 0 0 0
0 0 0 0 0 0 0 0 0 0 0 0 0 0 0 0 0 0 0 0 0 0 0 0 0 0 0 0 0 0 0 0 0 0 0 0 0 0 0 0 0 0 0 0
0 0 0 0 0 0 0 0 0 0 0 0 0 0 0 0 0 0 0 0 0 0 0 0 0 0 0 0 0 0 0 0 0 0 0 0 0 0 0 0 0 0 0 0
0 0 0 0 0 0 0 0 1 0 0 0 0 0 0 0 0 0 0 0 0 0 0 0 0 0 0 0 0 0 0 0 0 0 0 0 0 0 0 0 0 0 0 0
0 0 0 0 0 0 0 1 1 1 0 0 0 0 0 0 0 0 0 0 0 0 0 0 0 0 0 0 0 0 0 0 0 0 0 0 0 0 0 0 0 0 0 0
0 0 1 1 1 1 1 1 1 1 1 0 0 0 0 0 0 0 0 0 0 0 0 0 0 0 0 0 0 0 0 0 0 0 0 0 0 0 0 0 0 0 0 0
0 0 1 1 1 1 1 1 1 1 1 0 0 0 0 0 0 0 0 0 0 0 0 0 0 0 0 0 0 0 0 0 0 0 0 0 0 0 0 0 0 0 0 0
0 0 0 0 0 1 1 1 1 1 0 0 0 0 0 0 0 0 0 0 0 0 0 0 0 0 0 0 0 0 0 0 0 0 0 0 0 0 0 0 0 0 0 1
0 0 0 0 0 1 1 1 1 0 0 0 0 0 0 0 0 0 0 0 0 0 0 0 0 0 0 0 0 0 0 0 0 0 0 0 0 0 0 0 0 0 0 0
Wind_Speed
6 7 7 7 7 5 3 3 3 3 6 6 7 8 9 10 10 10 11 10 9 9 8 7 6 5 5 4 4 3 4 4 3 3 3 3 3 3 3 4 5 4 5 5
7 8 8 6 3 2 2 2 3 6 7 7 9 8 8 9 10 10 10 9 9 9 8 7 7 6 6 4 4 3 3 4 3 3 3 2 2 3 3 4 4 5 5 6
7 6 5 2 3 3 4 6 4 4 7 9 9 8 8 8 8 9 10 9 10 9 8 6 6 6 6 5 4 4 4 3 3 2 2 2 3 3 3 4 4 4 5 5
5 5 4 3 4 5 7 8 7 9 9 7 8 7 8 7 8 9 9 9 8 8 8 7 6 5 5 5 5 4 3 3 3 3 3 3 3 3 3 3 3 3 3 4
3 3 2 4 3 3 4 6 7 8 8 8 9 9 7 7 7 8 9 9 8 8 8 7 6 6 5 5 5 4 4 3 3 2 3 2 3 3 2 1 1 2 2 3
3 3 1 3 4 3 4 5 6 6 6 7 7 5 5 7 8 9 9 8 8 8 8 7 6 5 4 4 4 4 3 3 3 2 3 3 3 2 1 0 0 1 2 2
3 1 3 5 4 1 0 4 5 6 5 5 4 4 9 10 9 9 9 9 9 9 8 7 6 5 4 4 4 4 3 3 3 2 2 2 2 1 0 1 0 0 1 1
2 1 3 5 4 5 5 5 6 6 7 8 9 10 11 10 10 10 10 10 9 8 7 6 6 5 4 3 3 3 3 3 3 2 1 2 2 1 1 1 1 2 2 1
5 5 6 8 8 7 5 6 6 7 8 9 9 10 10 10 10 10 9 9 8 8 7 6 6 5 5 4 3 3 3 2 2 2 1 2 2 2 2 2 2 2 2 2
6 7 8 9 8 7 6 6 7 9 9 8 9 10 10 9 9 9 9 9 8 8 8 7 6 5 5 5 4 4 3 3 2 2 2 2 1 1 1 1 1 2 1 0
7 6 7 8 7 7 7 8 9 9 9 8 9 10 10 9 9 9 8 8 7 7 7 8 7 6 6 5 4 3 3 3 3 3 2 2 1 1 2 2 2 2 3 3
4 4 5 7 6 7 7 7 8 8 9 9 9 9 10 9 8 8 8 8 7 7 7 7 7 6 6 5 4 4 3 3 3 3 3 3 3 2 1 2 2 2 1 1
7 8 8 8 8 7 7 8 8 8 8 8 9 9 10 9 8 8 8 8 8 7 7 7 7 6 6 6 5 4 3 3 3 3 3 3 4 4 3 3 4 3 3 3
8 8 8 8 8 7 7 8 8 8 8 8 9 9 9 9 9 8 8 8 8 7 7 7 7 6 6 6 5 4 4 4 3 3 2 3 3 3 4 4 4 4 6 9
7 7 8 8 8 7 7 8 8 8 8 8 8 8 9 9 8 8 8 8 7 7 7 7 7 7 6 6 6 5 4 3 3 3 4 4 4 4 3 4 4 4 5 6
8 8 8 8 8 7 7 7 7 8 8 8 8 8 8 8 8 8 8 8 8 7 7 7 6 6 7 6 6 5 4 4 4 4 5 5 4 4 4 3 3 3 4 5
8 8 8 8 8 8 7 7 7 8 8 8 9 9 9 8 8 7 8 8 7 6 6 6 6 7 7 7 6 6 6 6 8 7 7 6 5 5 4 4 4 4 3 4
7 7 7 7 7 7 8 7 7 8 8 8 9 9 8 8 8 7 7 7 7 6 6 6 6 6 7 7 6 6 6 5 6 7 6 5 5 5 5 5 6 5 3 5
8 8 8 8 7 7 7 7 7 8 8 8 9 9 8 8 7 7 7 8 8 8 7 7 7 7 7 7 6 5 7 7 6 6 5 5 6 7 6 6 6 6 5 5
8 8 8 8 7 7 6 7 7 7 7 8 8 8 8 8 8 8 8 8 7 6 7 7 8 8 8 7 7 8 8 8 8 6 6 7 7 7 7 7 7 6 6 5
8 8 8 7 7 7 7 7 7 7 7 8 8 8 7 7 8 8 7 7 7 7 7 8 7 7 8 7 8 9 9 9 8 8 7 7 7 7 7 7 7 6 6 5
7 7 6 6 6 6 6 6 6 6 7 7 7 7 7 8 8 8 8 6 6 7 7 8 8 9 9 8 9 10 10 10 9 8 8 7 7 7 7 7 7 6 6 5
6 6 6 6 6 6 6 5 6 6 6 7 7 7 7 6 6 6 6 6 7 8 8 7 7 8 10 9 9 9 10 10 9 9 8 7 7 7 7 8 7 7 6 6
6 6 5 5 5 5 6 6 5 5 6 6 6 7 7 6 6 6 5 6 7 9 8 6 8 10 10 8 9 10 10 9 9 9 9 9 8 8 7 7 7 6 6 8
5 5 5 5 5 5 5 6 6 6 6 5 6 7 7 6 5 5 4 6 8 9 8 8 12 13 10 9 10 10 10 10 9 9 8 7 8 8 7 7 7 7 7 7
5 4 4 3 3 3 4 5 5 5 5 5 5 5 5 4 4 4 4 6 9 9 9 7 8 10 10 10 11 10 10 9 9 9 9 9 9 9 8 7 9 7 7 7
6 5 5 5 6 5 5 4 4 4 4 4 4 3 4 4 5 5 5 5 6 7 7 7 7 8 9 10 10 9 9 8 8 8 8 8 8 8 8 9 8 7 7 7
Wind_Direction
268 264 258 260 271 276 288 305 319 97 124 140 134 135 135 136 138 141 145 146 144 143 140 139 142 138 129 117 103 95 102 104 96 93 85 74 61 51 40 30 38 31 30 33
264 250 249 258 271 296 323 356 102 115 102 116 119 124 133 139 146 149 149 147 146 148 147 151 151 143 132 125 125 120 117 117 112 101 93 88 76 59 52 42 34 34 40 44
267 260 241 267 13 22 48 46 54 86 117 131 129 132 140 145 148 155 154 153 152 152 152 150 146 142 141 141 138 132 133 128 123 118 104 84 73 67 57 51 47 42 46 55
270 277 251 91 49 60 75 61 72 97 119 127 121 122 128 137 147 149 151 151 152 150 146 142 140 138 139 144 141 138 138 130 123 114 97 78 72 66 58 53 48 53 50 53
258 244 162 114 65 55 89 85 79 102 114 120 124 125 121 131 136 139 145 145 143 142 139 137 139 143 147 144 145 147 141 129 124 117 105 92 84 76 63 51 54 78 71 56
269 267 234 88 56 53 116 108 88 104 121 137 152 153 134 129 128 131 133 134 136 137 136 138 144 148 153 157 151 149 143 138 120 104 100 90 90 93 88 21 360 86 83 67
254 238 76 36 13 334 250 103 100 112 120 133 136 96 123 128 125 126 128 132 137 139 139 143 147 151 160 157 154 155 143 128 116 111 124 126 120 121 178 275 10 41 117 113
281 183 80 21 37 49 78 98 99 104 108 105 104 111 123 128 128 131 134 139 140 139 139 144 146 151 150 146 144 137 128 126 124 139 181 130 136 174 222 237 226 226 231 190
45 79 88 67 75 87 95 97 104 110 110 115 122 129 130 132 134 138 144 143 143 143 144 148 154 158 154 147 142 132 134 136 137 146 134 136 181 201 221 231 242 229 221 196
99 102 100 91 89 89 91 99 107 111 117 126 129 132 134 137 139 142 145 145 148 152 153 151 154 157 149 147 151 154 155 157 163 185 189 183 228 241 244 312 321 319 321 69
102 114 111 95 92 93 96 103 106 112 119 124 130 136 138 140 142 144 146 149 154 157 155 152 154 156 158 159 166 167 170 179 199 210 181 171 145 9 11 40 42 9 1 7
121 123 112 112 107 106 107 109 113 119 122 129 135 136 138 140 143 147 149 151 155 157 160 157 156 160 162 164 171 173 189 204 217 216 201 194 184 169 117 165 159 129 85 30
101 107 107 114 110 108 113 116 116 118 125 131 135 137 137 139 144 148 152 158 160 164 163 158 162 168 168 173 180 189 210 217 235 231 216 212 198 194 195 206 225 236 240 245
104 113 116 114 113 114 117 118 118 119 122 125 130 136 140 145 150 154 158 160 163 167 168 170 173 175 174 177 184 199 222 223 238 246 245 239 233 225 209 204 204 211 222 228
116 115 117 119 120 121 125 128 130 130 130 130 135 142 147 151 154 156 158 161 167 174 179 183 183 180 181 185 192 209 227 236 237 256 258 254 252 252 242 227 220 200 186 203
123 124 130 130 130 136 141 143 143 141 142 143 145 149 151 153 155 157 161 168 177 186 187 188 186 182 188 192 196 208 222 242 250 262 265 261 257 255 254 243 239 223 204 195
144 147 149 145 145 150 151 148 146 148 150 153 154 156 157 159 160 164 172 176 181 189 188 190 195 194 196 196 207 222 226 217 219 241 253 257 263 265 265 262 255 248 233 198
146 148 150 153 155 155 156 154 151 152 154 155 157 161 166 169 172 176 181 177 181 191 196 200 203 208 212 210 214 236 245 238 226 235 246 251 259 265 263 261 261 261 244 203
150 152 154 158 160 159 158 155 152 154 157 159 160 165 175 179 181 182 185 188 194 199 199 201 205 214 223 224 227 229 244 251 245 245 248 243 250 259 260 262 260 259 259 247
154 156 159 163 161 156 157 155 154 155 159 163 165 171 179 182 185 189 195 203 207 208 193 193 199 212 222 220 231 245 249 254 252 247 248 248 250 253 257 262 264 261 259 258
157 158 160 158 154 159 158 154 156 163 166 172 175 181 183 185 191 195 203 212 205 203 197 190 205 215 219 219 216 241 252 257 256 252 251 254 254 256 259 263 266 267 266 263
155 153 155 153 155 156 151 152 162 170 171 180 186 188 188 191 199 204 211 219 212 193 199 205 213 217 219 224 229 238 247 252 255 255 254 256 259 260 262 263 265 265 265 265
147 147 149 154 155 154 157 167 172 177 183 192 196 198 201 204 210 213 215 209 211 194 208 222 213 197 198 221 241 249 255 258 261 262 259 257 259 262 264 264 263 264 264 263
148 148 147 152 158 165 171 177 175 185 194 203 205 202 205 209 215 221 219 196 191 183 211 210 187 189 202 231 244 251 255 257 258 260 261 259 257 258 260 263 264 265 266 269
153 157 160 169 182 181 175 184 188 196 205 209 211 206 210 215 216 215 213 192 177 185 213 204 194 197 213 237 245 252 254 257 261 268 272 275 278 277 275 273 273 272 271 272
164 177 169 192 204 200 196 196 199 198 206 214 215 206 207 210 218 216 214 211 198 202 224 218 202 205 224 238 246 251 256 258 258 257 261 264 269 271 275 278 281 280 281 280
179 182 186 204 206 206 209 207 207 207 212 218 225 215 213 216 219 223 226 230 214 210 227 235 228 221 229 238 244 247 251 256 260 263 265 267 269 270 270 272 274 276 279 280